Dublin, GA

4:19 AM EDT on May 25, 2018 (GMT -0400)
Dublin

Weather History for KDBN - October, 2010

Change the Weather History Date:

Friday, October 29, 2010

  Actual Average Record
Temperature  
Mean Temperature 60 °F -  
Max Temperature 73 °F 75 °F 86 °F (1974)
Min Temperature 48 °F 45 °F 28 °F (1976)
Degree Days  
Heating Degree Days 4    
Growing Degree Days 10 (Base 50)    
Moisture  
Dew Point 45 °F    
Average Humidity 57    
Maximum Humidity 82    
Minimum Humidity 33    
Precipitation  
Precipitation 0.00 in - - ()
Sea Level Pressure  
Sea Level Pressure 30.13 in    
Wind  
Wind Speed 3 mph (NNW)    
Max Wind Speed 9 mph    
Max Gust Speed -    
Visibility 10 miles    
Events      
Averages and records for this station are not official NWS values.
T = Trace of Precipitation, MM = Missing Value Source: NWS Daily Summary

Daily Weather History Graph

Daily Weather History Graph

Search for Another Location

Airport or City:

Astronomy

Oct. 29, 2010 Rise Set
Actual Time 7:48 AM EDT 6:42 PM EDT
Civil Twilight 7:22 AM EDT 7:08 PM EDT
Nautical Twilight 6:53 AM EDT 7:37 PM EDT
Astronomical Twilight 6:24 AM EDT 8:06 PM EDT
Moon No Moon Rise 1:43 PM EDT (10/29)
Length of Visible Light 11h 45m
Length of Day
10h 54m
Waning Gibbous, 60% of the Moon is Illuminated
Oct 29
Waning Gibbous
Oct 30
Last Quarter
Nov 6
New
Nov 13
First Quarter
Nov 21
Full

Hourly Weather History & Observations

Time (EDT) Temp. Dew Point Humidity Pressure Visibility Wind Dir Wind Speed Gust Speed Precip Events Conditions
12:01 AM 57.2 °F 48.2 °F 72% 30.08 in 10.0 mi Calm Calm - N/A   Clear
12:23 AM 57.2 °F 48.2 °F 72% 30.08 in 10.0 mi Calm Calm - N/A   Clear
12:41 AM 57.2 °F 48.2 °F 72% 30.08 in 10.0 mi Calm Calm - N/A   Clear
1:01 AM 57.2 °F 46.4 °F 67% 30.08 in 10.0 mi WNW 5.8 mph - N/A   Clear
1:43 AM 57.2 °F 46.4 °F 67% 30.07 in 10.0 mi WNW 4.6 mph - N/A   Clear
2:02 AM 57.2 °F 46.4 °F 67% 30.08 in 10.0 mi NW 4.6 mph - N/A   Clear
2:23 AM 57.2 °F 44.6 °F 63% 30.07 in 10.0 mi NW 6.9 mph - N/A   Clear
2:43 AM 57.2 °F 44.6 °F 63% 30.08 in 10.0 mi WNW 4.6 mph - N/A   Clear
3:22 AM 57.2 °F 44.6 °F 63% 30.08 in 10.0 mi NW 6.9 mph - N/A   Clear
3:42 AM 55.4 °F 44.6 °F 67% 30.07 in 10.0 mi NW 5.8 mph - N/A   Clear
4:04 AM 55.4 °F 42.8 °F 63% 30.07 in 10.0 mi NW 4.6 mph - N/A   Clear
4:22 AM 55.4 °F 42.8 °F 63% 30.07 in 10.0 mi NW 9.2 mph - N/A   Clear
4:42 AM 55.4 °F 42.8 °F 63% 30.07 in 10.0 mi NW 6.9 mph - N/A   Clear
5:01 AM 53.6 °F 42.8 °F 67% 30.07 in 10.0 mi NW 5.8 mph - N/A   Clear
5:23 AM 53.6 °F 42.8 °F 67% 30.08 in 10.0 mi Calm Calm - N/A   Clear
5:41 AM 53.6 °F 42.8 °F 67% 30.08 in 10.0 mi NNW 4.6 mph - N/A   Clear
6:02 AM 51.8 °F 42.8 °F 71% 30.09 in 10.0 mi NNW 3.5 mph - N/A   Clear
6:21 AM 51.8 °F 42.8 °F 71% 30.10 in 10.0 mi NNW 3.5 mph - N/A   Clear
6:43 AM 51.8 °F 42.8 °F 71% 30.11 in 10.0 mi Calm Calm - N/A   Clear
7:04 AM 51.8 °F 42.8 °F 71% 30.12 in 10.0 mi North 3.5 mph - N/A   Clear
7:23 AM 51.8 °F 42.8 °F 71% 30.13 in 10.0 mi North 4.6 mph - N/A   Clear
7:44 AM 51.8 °F 42.8 °F 71% 30.14 in 10.0 mi Calm Calm - N/A   Clear
8:04 AM 48.2 °F 42.8 °F 82% 30.14 in 10.0 mi Calm Calm - N/A   Clear
8:21 AM 50.0 °F 42.8 °F 76% 30.15 in 10.0 mi Calm Calm - N/A   Clear
8:41 AM 51.8 °F 42.8 °F 71% 30.15 in 10.0 mi NNW 4.6 mph - N/A   Clear
9:01 AM 53.6 °F 42.8 °F 67% 30.17 in 10.0 mi NNW 6.9 mph - N/A   Clear
9:21 AM 55.4 °F 42.8 °F 63% 30.17 in 10.0 mi NNW 4.6 mph - N/A   Clear
9:43 AM 55.4 °F 44.6 °F 67% 30.18 in 10.0 mi North 4.6 mph - N/A   Clear
10:03 AM 57.2 °F 44.6 °F 63% 30.18 in 10.0 mi NNW 6.9 mph - N/A   Clear
10:21 AM 60.8 °F 44.6 °F 55% 30.18 in 10.0 mi Calm Calm - N/A   Clear
10:41 AM 60.8 °F 44.6 °F 55% 30.18 in 10.0 mi North 5.8 mph - N/A   Clear
11:01 AM 62.6 °F 44.6 °F 52% 30.18 in 10.0 mi Calm Calm - N/A   Clear
11:24 AM 64.4 °F 44.6 °F 49% 30.18 in 10.0 mi NE 6.9 mph - N/A   Clear
11:41 AM 64.4 °F 44.6 °F 49% 30.19 in 10.0 mi ENE 4.6 mph - N/A   Clear
12:03 PM 66.2 °F 46.4 °F 49% 30.18 in 10.0 mi NNE 3.5 mph - N/A   Clear
12:21 PM 66.2 °F 46.4 °F 49% 30.18 in 10.0 mi North 4.6 mph - N/A   Clear
12:43 PM 69.8 °F 46.4 °F 43% 30.18 in 10.0 mi North 3.5 mph - N/A   Clear
1:01 PM 69.8 °F 46.4 °F 43% 30.17 in 10.0 mi North 3.5 mph - N/A   Clear
1:23 PM 71.6 °F 46.4 °F 41% 30.17 in 10.0 mi NNE 6.9 mph - N/A   Clear
1:41 PM 71.6 °F 46.4 °F 41% 30.16 in 10.0 mi Calm Calm - N/A   Clear
2:03 PM 71.6 °F 46.4 °F 41% 30.15 in 10.0 mi NE 4.6 mph - N/A   Clear
2:21 PM 71.6 °F 44.6 °F 38% 30.14 in 10.0 mi NW 4.6 mph - N/A   Clear
2:41 PM 73.4 °F 46.4 °F 38% 30.14 in 10.0 mi WNW 4.6 mph - N/A   Clear
3:01 PM 73.4 °F 46.4 °F 38% 30.13 in 10.0 mi NNE 3.5 mph - N/A   Clear
3:23 PM 73.4 °F 44.6 °F 36% 30.13 in 10.0 mi NW 3.5 mph - N/A   Clear
3:42 PM 73.4 °F 44.6 °F 36% 30.13 in 10.0 mi NW 4.6 mph - N/A   Clear
4:03 PM 73.4 °F 44.6 °F 36% 30.12 in 10.0 mi North 5.8 mph - N/A   Clear
4:23 PM 73.4 °F 42.8 °F 33% 30.12 in 10.0 mi NNE 8.1 mph - N/A   Clear
4:42 PM 73.4 °F 44.6 °F 36% 30.12 in 10.0 mi North 5.8 mph - N/A   Clear
5:01 PM 73.4 °F 44.6 °F 36% 30.12 in 10.0 mi NNE 4.6 mph - N/A   Clear
5:21 PM 71.6 °F 44.6 °F 38% 30.12 in 10.0 mi Calm Calm - N/A   Clear
5:41 PM 71.6 °F 42.8 °F 35% 30.12 in 10.0 mi North 4.6 mph - N/A   Clear
6:02 PM 69.8 °F 44.6 °F 40% 30.13 in 10.0 mi Calm Calm - N/A   Clear
6:24 PM 66.2 °F 46.4 °F 49% 30.13 in 10.0 mi Calm Calm - N/A   Clear
6:41 PM 62.6 °F 51.8 °F 68% 30.13 in 7.0 mi Calm Calm - N/A   Clear
7:01 PM 57.2 °F 51.8 °F 82% 30.14 in 10.0 mi Calm Calm - N/A   Clear
7:21 PM 55.4 °F 53.6 °F 94% 30.14 in 10.0 mi Calm Calm - N/A   Clear
7:41 PM 57.2 °F 51.8 °F 82% 30.14 in 10.0 mi Calm Calm - N/A   Clear
8:03 PM 53.6 °F 51.8 °F 94% 30.15 in 10.0 mi Calm Calm - N/A   Clear
8:21 PM 51.8 °F 51.8 °F 100% 30.16 in 10.0 mi Calm Calm - N/A   Clear
8:43 PM 51.8 °F 51.8 °F 100% 30.17 in 10.0 mi Calm Calm - N/A   Clear
9:04 PM 51.8 °F 51.8 °F 100% 30.17 in 10.0 mi Calm Calm - N/A   Clear
9:21 PM 48.2 °F 48.2 °F 100% 30.17 in 10.0 mi Calm Calm - N/A   Clear
9:41 PM 48.2 °F 48.2 °F 100% 30.17 in 10.0 mi Calm Calm - N/A   Clear
10:04 PM 48.2 °F 48.2 °F 100% 30.17 in 10.0 mi Calm Calm - N/A   Clear
10:21 PM 48.2 °F 48.2 °F 100% 30.18 in 10.0 mi Calm Calm - N/A   Clear
10:41 PM 48.2 °F 48.2 °F 100% 30.18 in 10.0 mi Calm Calm - N/A   Clear
11:01 PM 46.4 °F 46.4 °F 100% 30.18 in 10.0 mi Calm Calm - N/A   Clear
11:22 PM 46.4 °F 46.4 °F 100% 30.18 in 10.0 mi Calm Calm - N/A   Clear
11:43 PM 46.4 °F 46.4 °F 100% 30.18 in 10.0 mi Calm Calm - N/A   Clear